Wind_Speed
6 6 7 8 9 9 9 10 10 11 12 12 12 12 12 12 13 13 13 14 14 13 13 13 13 13 13 13 12 12 11 10 10 9 8 7 7 7 6 5 4 3 2
6 7 8 9 9 9 9 10 11 11 12 12 11 11 11 12 12 11 12 12 13 13 13 14 14 14 14 14 13 13 13 12 11 10 9 8 8 7 7 6 5 5 4
7 8 8 9 9 9 9 10 11 11 11 11 10 10 11 11 11 11 11 11 12 12 13 14 14 15 15 15 14 14 14 14 13 12 10 10 9 8 8 8 7 6 5
7 8 8 9 8 9 9 10 10 10 10 10 10 10 11 11 11 12 11 11 12 12 13 13 15 16 16 15 16 15 15 15 14 13 12 11 10 9 9 9 8 7 6
8 8 8 8 8 8 8 9 10 10 10 10 10 11 11 11 11 12 12 13 13 13 14 15 15 15 16 16 16 16 16 15 15 15 14 13 11 10 10 9 9 8 7
8 8 8 7 7 8 9 9 9 10 10 10 11 11 11 11 11 11 12 13 14 14 15 15 16 16 16 17 16 17 17 16 16 16 16 15 13 12 11 10 10 9 9
7 8 7 7 8 8 9 9 10 11 11 11 11 12 11 11 12 12 13 14 15 15 15 15 16 16 16 17 17 17 18 18 18 17 17 16 15 14 12 12 11 11 10
8 7 7 7 8 8 9 10 10 11 11 11 11 12 12 12 13 13 14 15 15 15 16 16 16 16 17 17 18 19 19 18 19 19 18 18 17 16 14 13 12 12 12
8 7 7 7 8 9 9 9 10 10 11 11 12 12 13 13 14 14 15 16 16 16 17 17 17 17 17 17 17 18 19 20 20 21 20 19 18 17 16 15 14 13 13
7 7 7 8 8 9 9 9 10 11 11 12 12 13 13 14 15 15 16 16 17 17 17 17 17 17 17 17 18 18 19 20 21 21 21 21 20 19 17 16 15 15 15
8 8 8 8 8 9 9 10 11 12 12 12 12 13 14 15 16 16 17 17 17 17 18 18 18 17 17 17 18 19 19 20 21 22 21 22 21 20 19 18 17 16 15
8 8 9 9 9 9 10 11 12 12 12 12 13 14 15 16 16 17 17 17 18 18 18 18 18 18 17 17 18 19 19 20 22 22 22 22 22 21 20 19 18 18 17
9 9 9 9 10 10 11 12 12 12 12 12 13 14 15 16 17 17 17 18 18 18 18 18 19 18 18 18 17 18 19 20 21 23 23 23 23 23 22 20 20 19 18
9 9 9 10 10 11 11 12 12 12 12 13 14 15 16 16 17 18 18 18 18 18 18 19 19 19 17 18 17 18 18 19 20 22 23 23 24 24 23 22 21 20 20
9 10 10 10 11 12 12 12 12 12 13 14 15 15 16 17 17 18 19 19 19 18 19 19 18 18 18 18 18 18 18 19 20 22 24 24 24 24 25 24 22 22 21
10 10 10 11 12 12 13 13 13 13 13 14 15 16 17 17 18 19 19 19 18 18 19 18 18 17 17 18 19 19 19 19 20 21 23 24 24 25 25 24 23 23 22
11 11 11 12 13 13 13 13 13 13 14 15 16 16 16 17 18 19 19 18 18 19 18 17 17 16 16 17 18 18 19 20 21 21 23 24 25 26 26 25 24 24 23
11 11 12 12 13 13 14 14 14 14 15 15 16 16 17 17 18 19 19 18 18 18 18 16 16 15 15 15 16 18 19 20 21 21 22 24 25 26 26 26 25 24 24
11 11 12 12 13 13 13 14 14 14 15 15 16 17 17 18 18 18 18 18 18 18 17 16 15 14 13 13 15 17 18 19 21 21 22 24 25 26 26 26 26 25 25
11 11 12 12 13 13 13 13 14 14 15 15 16 17 17 18 18 18 17 17 18 17 16 15 13 12 12 12 13 15 18 20 20 21 22 24 24 26 26 26 27 25 25
10 11 11 12 13 13 13 13 13 14 14 14 15 17 17 17 18 17 17 17 17 17 15 13 12 11 10 11 12 14 16 18 20 21 22 24 24 25 26 27 27 26 25
10 11 12 12 13 13 13 13 13 14 14 14 15 16 17 17 17 17 16 16 16 16 15 13 12 10 9 9 10 12 15 18 20 21 21 23 24 25 26 27 27 26 25
10 11 11 12 12 12 13 13 13 13 14 14 15 16 17 17 17 17 16 16 16 15 14 13 11 9 7 6 8 10 13 16 18 20 21 22 24 24 24 26 27 26 25
10 11 11 12 13 13 13 13 13 13 14 14 15 16 16 17 17 17 16 16 15 14 13 12 10 7 5 4 6 9 12 15 17 19 20 22 23 24 24 26 26 25 25
10 11 12 12 12 13 13 13 13 13 13 14 15 16 16 16 17 17 16 16 15 14 12 11 9 7 4 3 4 7 10 13 15 17 18 21 23 24 24 25 26 25 25
10 11 12 12 12 13 13 13 13 13 13 14 14 15 16 16 16 16 16 15 15 14 12 10 9 7 4 2 3 6 9 12 13 16 17 19 21 23 24 25 25 24 25
Wind_Direction
297 303 309 313 316 317 314 314 316 317 316 314 312 311 307 304 299 294 287 282 282 276 271 268 266 263 262 260 258 257 257 256 254 250 248 246 244 241 233 228 232 231 237
294 301 307 310 313 313 313 315 317 318 317 315 313 312 309 307 304 299 290 285 284 278 272 269 265 262 261 261 260 258 255 251 250 248 246 242 239 238 232 230 229 227 225
295 301 305 307 309 309 310 314 316 316 318 316 315 313 312 310 307 303 298 292 288 283 276 271 268 264 262 260 259 257 253 248 247 245 242 239 238 238 232 228 228 222 216
298 301 303 304 305 306 311 315 317 318 317 314 314 312 311 309 307 304 301 297 293 287 281 277 273 268 264 260 258 256 254 248 242 240 239 237 235 233 230 226 223 218 212
303 303 303 303 304 309 313 314 316 317 315 312 311 310 308 306 304 303 300 298 294 289 282 278 275 271 265 260 258 255 252 247 240 236 235 234 230 230 226 223 219 216 210
302 301 301 301 305 309 311 311 312 312 311 310 309 309 309 308 305 303 301 300 295 290 286 280 276 272 266 261 259 254 249 244 239 234 231 230 228 227 221 220 217 213 209
301 301 298 298 304 308 308 307 308 309 309 309 309 310 310 309 308 306 304 302 298 293 289 286 280 274 269 262 259 255 247 241 237 232 228 226 226 223 218 217 213 210 207
305 306 301 299 301 304 305 305 307 308 309 310 311 312 312 311 310 310 309 305 301 297 294 289 282 277 273 264 256 251 246 241 235 230 225 224 224 221 217 214 213 211 207
306 305 301 300 301 302 304 306 307 308 309 311 311 312 312 312 312 312 311 307 303 299 296 291 286 279 274 267 257 250 244 240 236 229 224 222 219 217 215 213 213 212 207
303 302 297 300 302 304 304 306 308 308 309 310 310 311 311 311 313 313 312 309 304 300 296 292 287 281 276 268 261 252 244 240 236 228 225 220 216 215 214 212 212 212 207
296 299 299 300 301 302 304 307 309 310 310 309 310 310 310 311 312 312 311 309 305 301 297 293 289 284 277 268 260 253 245 240 235 228 223 218 215 213 213 210 210 210 208
293 296 300 299 300 301 304 308 309 310 311 311 312 311 311 312 312 312 310 308 305 301 297 294 290 285 277 270 261 253 246 238 232 226 220 217 214 213 212 208 209 210 207
296 297 297 294 296 300 304 308 309 310 311 311 312 313 314 313 313 312 310 309 307 302 298 294 289 285 276 268 258 251 246 238 230 224 219 217 215 214 213 209 209 209 206
299 300 298 294 296 301 306 310 310 311 310 311 313 315 315 315 314 313 312 310 308 303 300 295 290 285 276 266 256 250 245 237 229 222 219 217 215 214 213 210 209 208 205
297 299 299 295 298 303 308 311 311 311 311 311 313 315 316 316 316 316 315 313 310 306 302 298 292 284 277 268 257 249 242 234 226 221 217 216 214 213 211 209 209 207 205
298 299 299 298 301 305 309 310 310 312 313 313 315 317 318 318 318 318 317 316 313 309 305 300 293 285 277 267 256 247 239 232 224 219 217 214 213 211 210 208 208 207 204
300 300 299 302 305 307 308 309 310 313 314 314 317 320 321 321 320 320 319 318 315 312 309 304 295 287 278 268 255 245 235 229 223 220 217 214 213 211 209 208 207 206 205
301 302 304 305 306 308 307 308 309 312 315 316 318 322 323 323 323 322 322 321 319 316 311 307 299 290 279 268 254 243 232 225 222 220 216 213 211 209 208 207 206 205 203
303 304 306 308 309 309 309 308 310 312 315 318 320 324 325 325 325 325 324 324 323 321 316 310 303 293 279 267 254 242 231 224 222 219 215 210 208 207 208 208 206 203 204
303 303 307 309 310 311 312 311 311 312 316 319 322 325 328 330 329 327 327 327 329 327 323 316 308 297 281 267 254 240 229 224 220 217 213 208 207 208 208 206 204 204 203
304 305 306 310 310 311 313 312 313 315 317 321 324 328 331 334 333 332 331 332 334 333 331 325 316 303 287 269 253 238 225 221 217 213 211 208 208 208 208 205 203 204 204
309 309 308 311 312 312 312 312 314 317 320 324 327 331 334 334 335 335 335 335 337 337 335 330 323 311 291 270 251 233 220 217 213 211 209 208 208 208 205 204 204 206 205
310 311 313 315 315 314 314 314 315 319 322 327 331 334 336 337 338 338 338 338 339 340 340 337 331 322 301 274 249 228 215 211 207 208 209 207 206 206 204 203 204 205 207
312 313 314 316 316 315 315 315 315 318 323 329 333 336 339 340 340 342 342 342 342 343 344 345 342 333 312 277 240 220 212 209 208 208 210 209 206 207 205 202 203 205 206
312 313 314 314 315 317 317 315 315 318 322 328 333 337 340 341 342 343 346 345 346 347 348 351 350 348 331 279 233 214 208 207 207 209 210 210 209 208 207 205 206 208 208
313 315 316 317 318 319 320 318 318 320 323 327 332 336 340 342 344 346 350 349 349 351 352 353 354 357 355 316 230 209 206 206 208 206 207 208 209 209 208 207 207 209 209
Height
5884 5883 5882 5881 5881 5880 5879 5879 5878 5877 5876 5875 5874 5873 5872 5871 5871 5870 5869 5869 5868 5868 5868 5868 5868 5868 5869 5869 5869 5870 5870 5871 5871 5872 5872 5872 5873 5873 5874 5874 5874 5875 5875
5882 5882 5881 5880 5879 5878 5878 5877 5876 5876 5875 5874 5872 5871 5870 5869 5868 5867 5867 5866 5866 5865 5865 5865 5865 5865 5866 5866 5867 5867 5868 5868 5869 5870 5870 5871 5871 5872 5873 5873 5873 5874 5874
5881 5880 5879 5879 5878 5877 5876 5875 5875 5874 5873 5872 5871 5870 5869 5867 5866 5865 5864 5863 5863 5863 5862 5862 5862 5862 5863 5863 5864 5864 5865 5866 5867 5867 5868 5869 5870 5870 5871 5872 5872 5873 5873
5880 5879 5878 5877 5876 5876 5875 5874 5873 5872 5871 5870 5869 5868 5867 5866 5864 5863 5862 5861 5860 5860 5859 5859 5859 5859 5859 5860 5860 5861 5862 5863 5864 5865 5866 5867 5868 5868 5869 5870 5871 5872 5872
5878 5877 5876 5876 5875 5874 5873 5872 5871 5870 5869 5868 5867 5866 5865 5863 5862 5861 5860 5859 5858 5857 5856 5856 5856 5856 5856 5856 5857 5858 5859 5860 5861 5862 5863 5864 5865 5866 5867 5868 5869 5871 5871
5877 5876 5875 5874 5874 5873 5872 5871 5870 5868 5867 5866 5865 5864 5862 5861 5860 5859 5857 5856 5855 5854 5853 5853 5852 5852 5852 5852 5853 5854 5855 5856 5858 5859 5860 5862 5863 5864 5865 5867 5868 5869 5871
5876 5875 5874 5873 5872 5871 5870 5869 5868 5867 5865 5864 5863 5862 5860 5859 5858 5856 5855 5853 5852 5851 5850 5849 5849 5848 5848 5849 5849 5850 5851 5853 5854 5856 5857 5859 5861 5862 5863 5865 5866 5868 5869
5874 5873 5872 5871 5870 5869 5868 5867 5866 5865 5864 5862 5861 5860 5858 5857 5855 5854 5852 5851 5849 5848 5847 5846 5845 5844 5844 5845 5845 5846 5847 5848 5850 5852 5854 5856 5858 5859 5861 5863 5865 5866 5868
5873 5872 5871 5870 5869 5868 5867 5866 5864 5863 5862 5860 5859 5857 5856 5854 5853 5851 5849 5848 5846 5845 5843 5842 5841 5841 5840 5840 5841 5842 5843 5844 5846 5848 5850 5852 5855 5857 5859 5861 5863 5865 5866
5871 5870 5869 5868 5867 5866 5865 5864 5863 5861 5860 5858 5857 5855 5854 5852 5850 5848 5846 5845 5843 5841 5840 5839 5838 5837 5836 5836 5836 5837 5838 5839 5841 5843 5846 5849 5851 5853 5856 5858 5860 5863 5864
5870 5869 5868 5867 5866 5865 5864 5862 5861 5859 5858 5856 5855 5853 5851 5849 5847 5845 5843 5841 5840 5838 5836 5835 5834 5833 5832 5832 5832 5833 5834 5835 5837 5839 5842 5845 5848 5850 5853 5855 5858 5860 5862
5869 5868 5866 5866 5865 5863 5862 5861 5859 5857 5856 5854 5852 5850 5849 5846 5844 5842 5840 5838 5836 5834 5832 5831 5829 5828 5828 5827 5827 5828 5829 5831 5833 5835 5838 5841 5844 5847 5850 5853 5855 5858 5860
5867 5866 5865 5864 5863 5862 5861 5859 5857 5855 5854 5852 5850 5848 5846 5844 5841 5839 5837 5835 5832 5830 5828 5826 5825 5823 5823 5823 5823 5824 5825 5826 5828 5831 5834 5837 5841 5844 5847 5850 5853 5855 5858
5865 5865 5864 5863 5862 5860 5859 5857 5855 5854 5852 5850 5848 5846 5843 5841 5838 5836 5833 5831 5828 5826 5824 5822 5820 5819 5818 5818 5818 5819 5820 5822 5824 5827 5830 5834 5837 5840 5843 5847 5849 5852 5855
5864 5863 5862 5861 5860 5859 5857 5855 5854 5852 5850 5848 5846 5843 5841 5838 5835 5833 5830 5827 5824 5822 5819 5817 5816 5814 5813 5813 5813 5815 5816 5818 5820 5823 5826 5830 5833 5837 5840 5843 5846 5850 5853
5863 5862 5861 5860 5858 5857 5855 5854 5852 5850 5848 5846 5843 5841 5838 5835 5832 5830 5826 5824 5821 5818 5815 5813 5811 5810 5809 5808 5809 5810 5812 5814 5816 5819 5822 5826 5830 5833 5837 5840 5844 5847 5850
5862 5861 5860 5858 5857 5855 5853 5852 5850 5848 5846 5844 5841 5838 5835 5832 5829 5826 5823 5820 5817 5814 5811 5809 5807 5805 5804 5803 5804 5805 5807 5810 5813 5816 5819 5822 5826 5830 5834 5837 5841 5844 5847
5860 5859 5858 5856 5855 5853 5852 5850 5848 5846 5844 5841 5839 5836 5833 5830 5826 5823 5820 5817 5814 5810 5807 5805 5803 5801 5800 5799 5799 5801 5803 5806 5809 5812 5815 5818 5822 5826 5830 5834 5838 5841 5845
5859 5858 5856 5855 5853 5852 5850 5848 5846 5844 5842 5839 5836 5833 5830 5827 5824 5820 5817 5814 5810 5807 5804 5801 5799 5797 5796 5795 5796 5797 5799 5802 5805 5808 5812 5815 5819 5823 5827 5831 5834 5838 5842
5857 5856 5855 5853 5852 5850 5848 5847 5845 5842 5840 5837 5834 5831 5828 5825 5821 5818 5814 5811 5808 5804 5801 5798 5796 5794 5793 5792 5792 5794 5796 5798 5802 5805 5808 5812 5815 5819 5823 5827 5832 5835 5839
5856 5854 5853 5852 5850 5848 5847 5845 5843 5841 5838 5835 5833 5829 5826 5822 5819 5815 5812 5809 5805 5802 5799 5796 5793 5791 5790 5789 5790 5791 5793 5795 5798 5802 5805 5809 5812 5816 5820 5824 5828 5832 5836
5854 5853 5852 5850 5849 5847 5845 5843 5841 5839 5836 5833 5831 5827 5824 5821 5817 5814 5810 5807 5804 5800 5797 5794 5791 5789 5787 5787 5787 5788 5790 5793 5795 5799 5802 5806 5809 5813 5817 5821 5825 5829 5833
5853 5851 5850 5849 5847 5845 5843 5841 5839 5837 5835 5832 5829 5826 5822 5819 5815 5812 5808 5805 5802 5799 5795 5792 5789 5787 5786 5785 5785 5786 5788 5790 5793 5797 5799 5803 5806 5810 5814 5818 5822 5827 5830
5851 5850 5848 5847 5845 5843 5841 5840 5837 5836 5833 5830 5828 5824 5821 5818 5814 5811 5807 5804 5801 5798 5794 5791 5789 5786 5785 5784 5784 5785 5786 5788 5791 5795 5797 5800 5804 5808 5811 5816 5820 5824 5827
5850 5848 5847 5845 5844 5842 5840 5838 5836 5834 5831 5829 5826 5823 5820 5817 5813 5810 5806 5803 5800 5797 5794 5791 5789 5787 5785 5784 5784 5784 5786 5788 5790 5793 5795 5799 5802 5805 5809 5813 5817 5821 5824
5848 5847 5845 5844 5842 5840 5838 5836 5834 5832 5830 5828 5825 5822 5819 5816 5813 5809 5806 5803 5799 5797 5794 5791 5789 5787 5786 5785 5785 5785 5786 5787 5789 5791 5794 5797 5800 5803 5807 5811 5814 5818 5821